N216TB TNCM-TFFJ

Flight info

Callsign N216TB
Flight time 0h 10m
Altitude 2500
Route MODOR
Aircraft PC12/L-L/C

Departure

Time 2026-05-04 11:40
Airport Princess Juliana International Airport (TNCM)

Arrival

Time 2026-05-04 11:51
Airport St. Jean Airport (TFFJ)
Time Latitude Longitude Altitude Speed Heading
2026-05-04 11:31 18.04178 -63.11239 20 ft 0 kts 171°
2026-05-04 11:37 18.04170 -63.11237 20 ft 3 kts 172°
2026-05-04 11:38 18.04138 -63.11257 20 ft 9 kts 255°
2026-05-04 11:38 18.04120 -63.11290 20 ft 2 kts 174°
2026-05-04 11:38 18.04101 -63.11289 20 ft 5 kts 185°
2026-05-04 11:38 18.04048 -63.11271 20 ft 11 kts 122°
2026-05-04 11:39 18.04043 -63.11242 20 ft 0 kts 78°
2026-05-04 11:39 18.04055 -63.11175 20 ft 38 kts 81°
2026-05-04 11:40 18.02238 -63.09576 2220 ft 133 kts 228°
2026-05-04 11:41 18.01522 -63.10165 2498 ft 139 kts 194°
2026-05-04 11:41 18.00518 -63.10296 2505 ft 152 kts 167°
2026-05-04 11:41 17.99452 -63.10141 2512 ft 157 kts 166°
2026-05-04 11:41 17.98358 -63.09965 2513 ft 160 kts 165°
2026-05-04 11:42 17.97248 -63.09784 2513 ft 162 kts 165°
2026-05-04 11:42 17.96127 -63.09603 2508 ft 163 kts 165°
2026-05-04 11:42 17.95010 -63.09422 2508 ft 163 kts 165°
2026-05-04 11:42 17.93891 -63.09238 2509 ft 164 kts 166°
2026-05-04 11:43 17.92785 -63.09059 2511 ft 163 kts 166°
2026-05-04 11:43 17.91661 -63.08878 2509 ft 163 kts 165°
2026-05-04 11:43 17.90534 -63.08693 2457 ft 166 kts 165°
2026-05-04 11:43 17.89462 -63.08271 2262 ft 164 kts 143°
2026-05-04 11:44 17.88613 -63.07500 2067 ft 161 kts 126°
2026-05-04 11:44 17.88059 -63.06497 1877 ft 159 kts 109°
2026-05-04 11:44 17.87843 -63.05360 1682 ft 159 kts 92°
2026-05-04 11:44 17.87955 -63.04224 1511 ft 157 kts 82°
2026-05-04 11:45 17.88096 -63.03116 1507 ft 151 kts 84°
2026-05-04 11:45 17.88227 -63.02031 1524 ft 149 kts 83°
2026-05-04 11:45 17.88362 -63.00950 1522 ft 149 kts 83°
2026-05-04 11:45 17.88497 -62.99882 1522 ft 146 kts 84°
2026-05-04 11:46 17.88629 -62.98822 1526 ft 146 kts 84°
2026-05-04 11:46 17.88762 -62.97767 1525 ft 147 kts 84°
2026-05-04 11:46 17.88896 -62.96704 1522 ft 146 kts 84°
2026-05-04 11:46 17.89031 -62.95645 1509 ft 147 kts 85°
2026-05-04 11:47 17.89164 -62.94569 1314 ft 148 kts 83°
2026-05-04 11:47 17.89300 -62.93508 1232 ft 142 kts 84°
2026-05-04 11:47 17.89427 -62.92516 1220 ft 136 kts 85°
2026-05-04 11:47 17.89547 -62.91550 1235 ft 131 kts 85°
2026-05-04 11:48 17.89660 -62.90651 1219 ft 114 kts 85°
2026-05-04 11:48 17.89780 -62.89876 1145 ft 102 kts 82°
2026-05-04 11:48 17.89922 -62.89153 977 ft 95 kts 81°
2026-05-04 11:48 17.90039 -62.88547 868 ft 71 kts 81°
2026-05-04 11:49 17.90110 -62.88057 706 ft 64 kts 88°
2026-05-04 11:49 17.90159 -62.87591 626 ft 66 kts 87°
2026-05-04 11:49 17.90223 -62.87097 590 ft 71 kts 83°
2026-05-04 11:49 17.90285 -62.86582 580 ft 71 kts 85°
2026-05-04 11:50 17.90336 -62.86079 548 ft 69 kts 77°
2026-05-04 11:50 17.90416 -62.85581 403 ft 66 kts 88°
2026-05-04 11:50 17.90425 -62.85111 196 ft 67 kts 88°
2026-05-04 11:50 17.90430 -62.84625 55 ft 71 kts 90°
2026-05-04 11:51 17.90440 -62.84203 25 ft 46 kts 85°
2026-05-04 11:51 17.90453 -62.84070 15 ft 5 kts 151°
2026-05-04 11:51 17.90443 -62.84125 19 ft 12 kts 273°
2026-05-04 11:51 17.90441 -62.84221 27 ft 14 kts 270°
2026-05-04 11:52 17.90439 -62.84320 33 ft 13 kts 266°
2026-05-04 11:52 17.90436 -62.84394 34 ft 8 kts 270°
2026-05-04 11:52 17.90432 -62.84464 41 ft 11 kts 263°
2026-05-04 11:52 17.90430 -62.84493 42 ft 12 kts 265°